Location: Boiro
(42.6475°N, 8.8834°W)
Time: 19:09:20
(UTC+01:00)

Transit 2A Rocket - Pass Details

Date: 05 December 2021
Orbit: 585 x 917 km, 66.7° (Epoch: 26 January)

Event Time Altitude Azimuth Distance (km) Brightness Sun altitude
Rises 10:00:45 0° 241° (WSW) 3,343 8.1 9.6°
Reaches altitude 10° 10:03:23 10° 252° (WSW) 2,462 7.4 9.9°
Maximum altitude 10:08:28 32° 314° (NW) 1,488 6.1 10.6°
Drops below altitude 10° 10:13:50 10° 16° (NNE) 2,601 7.5 11.3°
Sets 10:16:43 0° 26° (NNE) 3,560 8.2 11.7°
